Location: Gombori
(14.9797°N, 2.9419°W)
Time: 13:12:35
(UTC+00:00)

METEOR 2-17 DEB - Pass Details

Date: 04 June 2022
Orbit: 896 x 935 km, 82.5° (Epoch: 24 June)

Event Time Altitude Azimuth Distance (km) Brightness Sun altitude
Rises 20:43:06 0° 4° (N) 3,504 ? -27.0°
Reaches altitude 10° 20:45:37 10° 9° (N) 2,562 ? -27.4°
Enters shadow 20:49:47 41° 42° (NE) 1,266 ? -28.3°
